Location: Unspecified
(40.9799°N, 76.1133°W)
Time: 00:28:59
(UTC-04:00)

ISS - Visible Passes

Search period start: 25 September 2022 00:00
Search period end: 05 October 2022 00:00
Orbit: 414 x 417 km, 51.6° (Epoch: 24 September)

Date Brightness Start Highest point End Pass type
(mag) Time Alt. Az. Time Alt. Az. Time Alt. Az.
25 Sep -1.4 20:47:50 10° NNW 20:49:51 16° N 20:49:51 16° N visible
26 Sep -1.3 19:59:11 10° NNW 20:01:04 14° N 20:02:57 10° NE visible
26 Sep -0.5 21:35:32 10° NW 21:35:53 12° NW 21:35:53 12° NW visible
27 Sep -1.7 20:47:00 10° NW 20:49:03 21° N 20:49:03 21° N visible
28 Sep -1.7 19:58:28 10° NNW 20:00:54 18° NNE 20:02:14 15° NE visible
28 Sep -0.4 21:34:43 10° NW 21:35:07 13° NW 21:35:07 13° NW visible
29 Sep -2.3 20:46:06 10° NW 20:48:19 32° NNW 20:48:19 32° NNW visible
30 Sep -2.6 19:57:30 10° NW 20:00:31 29° NNE 20:01:33 24° ENE visible
30 Sep -0.3 21:34:08 10° WNW 21:34:27 12° WNW 21:34:27 12° WNW visible
01 Oct -2.1 19:08:55 10° NNW 19:11:38 22° NNE 19:14:19 10° ENE visible
01 Oct -2.7 20:45:17 10° WNW 20:47:45 44° WNW 20:47:45 44° WNW visible
02 Oct -3.8 19:56:33 10° NW 19:59:53 66° NE 20:01:07 35° ESE visible
03 Oct -3.1 19:07:52 10° NW 19:11:04 40° NNE 19:14:15 10° ESE visible
03 Oct -1.8 20:44:52 10° WNW 20:47:29 24° SW 20:47:29 24° SW visible
04 Oct -2.8 19:55:47 10° WNW 19:58:59 43° SW 20:01:04 19° SSE visible
